| time (UTC) | temp F | wind direction | speed knots | gust knots | rain 1hr in | rain 24hr in | rain mn in | humidity % | barometer mb |
| 20260504204556 | 82 | 129 | 1.7 | 7.8 | 0.00 | 0.00 | 0.00 | 41 | 1010.3 |
| 20260504203057 | 82 | 153 | 1.7 | 9.6 | 0.00 | 0.00 | 0.00 | 42 | 1010.6 |
| 20260504201559 | 82 | 247 | 2.6 | 8.7 | 0.00 | 0.00 | 0.00 | 43 | 1010.7 |
| 20260504200100 | 82 | 183 | 2.6 | 7.0 | 0.00 | 0.00 | 0.00 | 41 | 1010.9 |
| 20260504194558 | 83 | 278 | 2.6 | 6.1 | 0.00 | 0.00 | 0.00 | 40 | 1011.1 |
| 20260504193055 | 82 | 110 | 1.7 | 7.0 | 0.00 | 0.00 | 0.00 | 41 | 1011.4 |
| 20260504191600 | 82 | 179 | 0.9 | 7.0 | 0.00 | 0.00 | 0.00 | 40 | 1011.5 |
| 20260504190107 | 82 | 238 | 2.6 | 7.0 | 0.00 | 0.00 | 0.00 | 42 | 1011.8 |
| 20260504184613 | 82 | 133 | 1.7 | 8.7 | 0.00 | 0.00 | 0.00 | 43 | 1011.8 |
| 20260504183056 | 82 | 264 | 1.7 | 11.3 | 0.00 | 0.00 | 0.00 | 41 | 1011.9 |
| 20260504181552 | 82 | 291 | 1.7 | 7.0 | 0.00 | 0.00 | 0.00 | 43 | 1012.2 |
| 20260504180052 | 82 | 44 | 0.9 | 6.1 | 0.00 | 0.00 | 0.00 | 43 | 1012.4 |
| 20260504174604 | 81 | 150 | 1.7 | 7.0 | 0.00 | 0.00 | 0.00 | 43 | 1012.5 |
| 20260504173103 | 82 | 310 | 0.9 | 4.3 | 0.00 | 0.00 | 0.00 | 47 | 1012.5 |
| 20260504171558 | 81 | 56 | 0.9 | 3.5 | 0.00 | 0.00 | 0.00 | 46 | 1012.8 |
| 20260504081555 | 59 | 271 | 0.0 | 5.2 | 0.00 | 0.00 | 0.00 | 65 | 1013.9 |
| 20260504044603 | 57 | 0 | 0.0 | 1.7 | 0.00 | 0.00 | 0.00 | 66 | 1015.4 |
| 20260504043055 | 55 | 0 | 0.0 | 0.9 | 0.00 | 0.00 | 0.00 | 71 | 1015.6 |
| 20260504041556 | 54 | 0 | 0.0 | 0.9 | 0.00 | 0.00 | 0.00 | 71 | 1015.7 |
| 20260504040103 | 54 | 0 | 0.0 | 0.0 | 0.00 | 0.00 | 0.00 | 71 | 1015.8 |
| 20260504034600 | 55 | 0 | 0.0 | 0.9 | 0.00 | 0.00 | 0.00 | 70 | 1015.8 |
| 20260504033128 | 55 | 0 | 0.0 | 0.0 | 0.00 | 0.00 | 0.00 | 69 | 1015.9 |
| 20260504031558 | 57 | 0 | 0.0 | 0.9 | 0.00 | 0.00 | 0.00 | 65 | 1016.0 |
| 20260504030105 | 58 | 0 | 0.0 | 0.9 | 0.00 | 0.00 | 0.00 | 63 | 1016.0 |
| 20260504024557 | 59 | 0 | 0.0 | 0.9 | 0.00 | 0.00 | 0.00 | 60 | 1015.8 |
| 20260504023104 | 59 | 209 | 0.0 | 0.9 | 0.00 | 0.00 | 0.00 | 60 | 1015.7 |
| 20260504021559 | 60 | 0 | 0.0 | 0.9 | 0.00 | 0.00 | 0.00 | 60 | 1015.7 |
| 20260504020101 | 59 | 296 | 0.0 | 0.9 | 0.00 | 0.00 | 0.00 | 62 | 1015.6 |
| 20260504014559 | 58 | 0 | 0.0 | 0.0 | 0.00 | 0.00 | 0.00 | 65 | 1015.4 |
| 20260504013109 | 58 | 0 | 0.0 | 0.0 | 0.00 | 0.00 | 0.00 | 64 | 1015.5 |
| 20260504011556 | 59 | 0 | 0.0 | 0.9 | 0.00 | 0.00 | 0.00 | 60 | 1015.6 |
| 20260504010112 | 62 | 0 | 0.0 | 0.9 | 0.00 | 0.00 | 0.00 | 55 | 1015.7 |
| 20260504004627 | 63 | 0 | 0.0 | 0.9 | 0.00 | 0.00 | 0.00 | 51 | 1015.5 |
| 20260504003058 | 65 | 0 | 0.0 | 0.0 | 0.00 | 0.00 | 0.00 | 48 | 1015.7 |
| 20260504001601 | 66 | 0 | 0.0 | 1.7 | 0.00 | 0.00 | 0.00 | 46 | 1015.7 |
| 20260504000055 | 67 | 181 | 0.0 | 2.6 | 0.00 | 0.00 | 0.00 | 44 | 1015.8 |
| 20260503234554 | 68 | 172 | 1.7 | 4.3 | 0.00 | 0.00 | 0.00 | 42 | 1016.1 |
| 20260503233059 | 69 | 134 | 0.9 | 7.0 | 0.00 | 0.00 | 0.00 | 41 | 1016.1 |
| 20260503231557 | 69 | 150 | 0.0 | 4.3 | 0.00 | 0.00 | 0.00 | 42 | 1016.2 |
| 20260503230100 | 69 | 123 | 0.0 | 7.8 | 0.00 | 0.00 | 0.00 | 40 | 1016.4 |
| 20260503224554 | 70 | 109 | 0.9 | 4.3 | 0.00 | 0.00 | 0.00 | 39 | 1016.4 |
| 20260503223100 | 71 | 143 | 0.9 | 4.3 | 0.00 | 0.00 | 0.00 | 38 | 1016.5 |
| 20260503221555 | 72 | 187 | 1.7 | 7.8 | 0.00 | 0.00 | 0.00 | 36 | 1016.6 |
| 20260503220054 | 73 | 138 | 0.9 | 6.1 | 0.00 | 0.00 | 0.00 | 37 | 1016.7 |
| 20260503214553 | 74 | 330 | 1.7 | 4.3 | 0.00 | 0.00 | 0.00 | 36 | 1017.1 |
| 20260503213107 | 74 | 200 | 0.0 | 4.3 | 0.00 | 0.00 | 0.00 | 37 | 1017.4 |
| 20260503211554 | 74 | 122 | 0.9 | 3.5 | 0.00 | 0.00 | 0.00 | 36 | 1017.5 |
| 20260503210109 | 73 | 0 | 0.9 | 3.5 | 0.00 | 0.00 | 0.00 | 36 | 1017.9 |